EW4858 Weather Reports


Display with metric or nautical units.
time (UTC)temp
F
wind
direction
speed
MPH
gust
MPH
rain 1hr
in
rain 24hr
in
rain mn
in
humidity
%
barometer
mb
20260906154546 77 85 0.0 1.0 0.00 0.00 0.00 63 1008.4
20260906153037 77 85 0.0 2.0 0.00 0.00 0.00 62 1008.3
20260906151534 77 85 0.0 1.0 0.00 0.00 0.00 63 1008.4
20260906150041 76 86 0.0 0.0 0.00 0.00 0.00 63 1008.3
20260906144532 76 86 0.0 0.0 0.00 0.00 0.00 62 1008.2
20260906143029 76 86 0.0 0.0 0.00 0.00 0.00 61 1008.0
20260906141529 76 85 0.0 0.0 0.00 0.00 0.00 60 1008.0
20260906140028 76 85 0.0 0.0 0.00 0.00 0.00 59 1007.6
20260906134540 75 85 0.0 0.0 0.00 0.00 0.00 60 1007.4
20260906133047 75 85 0.0 0.0 0.00 0.00 0.00 61 1007.3
20260906131525 76 84 0.0 0.0 0.00 0.00 0.00 60 1007.2
20260906130024 76 84 0.0 0.0 0.00 0.00 0.00 57 1007.2
20260906124522 76 84 0.0 0.0 0.00 0.00 0.00 55 1007.1
20260906123029 76 84 0.0 0.0 0.00 0.00 0.00 55 1007.1
20260906120054 76 84 0.0 0.0 0.00 0.00 0.00 51 1007.1
20260906114652 76 84 0.0 0.0 0.00 0.00 0.00 50 1007.3
20260906113053 76 84 0.0 0.0 0.00 0.00 0.00 50 1007.3
20260906111555 76 84 0.0 0.0 0.00 0.00 0.00 50 1007.3
20260906110051 76 84 0.0 0.0 0.00 0.00 0.00 52 1007.3
20260906104604 76 84 0.0 0.0 0.00 0.00 0.00 52 1007.5
20260906103047 76 84 0.0 0.0 0.00 0.00 0.00 50 1007.6
20260906101545 77 84 0.0 0.0 0.00 0.00 0.00 47 1007.6
20260906100043 77 84 0.0 0.0 0.00 0.00 0.00 45 1007.4
20260906094540 78 116 0.0 2.0 0.00 0.00 0.00 42 1007.5
20260906093040 78 130 0.0 0.0 0.00 0.00 0.00 41 1007.3
20260906091536 78 130 0.0 0.0 0.00 0.00 0.00 40 1007.5
20260906090038 79 130 0.0 0.0 0.00 0.00 0.00 39 1007.6
20260906084536 79 130 0.0 0.0 0.00 0.00 0.00 39 1007.7
20260906083036 79 130 0.0 0.0 0.00 0.00 0.00 39 1007.8
20260906081532 79 130 0.0 0.0 0.00 0.00 0.00 38 1007.9
20260906080035 79 134 0.0 0.0 0.00 0.00 0.00 38 1007.9
20260906074530 79 134 0.0 0.0 0.00 0.00 0.00 38 1008.1
20260906073033 79 134 0.0 0.0 0.00 0.00 0.00 39 1008.2
20260906071527 79 134 0.0 0.0 0.00 0.00 0.00 39 1008.1
20260906070024 79 134 0.0 0.0 0.00 0.00 0.00 40 1008.1
20260906064524 79 130 0.0 2.0 0.00 0.00 0.00 39 1008.1
20260906063024 80 121 0.0 0.0 0.00 0.00 0.00 37 1008.3
20260906061523 79 121 0.0 0.0 0.00 0.00 0.00 37 1008.2
20260906060022 79 121 0.0 0.0 0.00 0.00 0.00 38 1008.0
20260906054523 79 121 0.0 0.0 0.00 0.00 0.00 37 1008.0
20260906053023 80 121 0.0 0.0 0.00 0.00 0.00 37 1008.2
20260906051524 80 103 0.0 0.0 0.00 0.00 0.00 37 1008.2
20260906050025 80 103 0.0 0.0 0.00 0.00 0.00 36 1008.3
20260906044521 80 103 0.0 0.0 0.00 0.00 0.00 36 1008.2
20260906043020 80 78 0.0 0.0 0.00 0.00 0.00 36 1008.3
20260906041523 80 71 0.0 3.0 0.00 0.00 0.00 35 1008.3
20260906040019 80 82 3.0 6.0 0.00 0.00 0.00 34 1008.1
20260906034518 81 113 0.0 5.0 0.00 0.00 0.00 33 1007.9
20260906033018 81 107 0.0 4.0 0.00 0.00 0.00 34 1007.9
20260906031517 82 90 1.0 7.0 0.00 0.00 0.00 36 1007.7
20260906030017 83 93 4.0 7.0 0.00 0.00 0.00 35 1007.6
20260906024517 83 80 3.0 5.0 0.00 0.00 0.00 37 1007.6
20260906023021 84 113 4.0 7.0 0.00 0.00 0.00 36 1007.5
20260906021516 85 99 2.0 7.0 0.00 0.00 0.00 32 1007.4
20260906020015 86 100 2.0 7.0 0.00 0.00 0.00 31 1007.3
20260906014520 87 89 1.0 7.0 0.00 0.00 0.00 30 1007.3
20260906013021 89 103 5.0 9.0 0.00 0.00 0.00 28 1007.3
20260906011517 90 94 4.0 9.0 0.00 0.00 0.00 33 1007.3
20260906010013 90 56 5.0 8.0 0.00 0.00 0.00 35 1007.2
20260906004512 90 44 4.0 9.0 0.00 0.00 0.00 35 1007.2
20260906003013 91 33 6.0 9.0 0.00 0.00 0.00 35 1007.2
20260906001511 91 61 3.0 9.0 0.00 0.00 0.00 34 1007.1
20260906000011 92 49 6.0 11.0 0.00 0.00 0.00 33 1007.1
20260905234510 93 59 3.0 9.0 0.00 0.00 0.00 30 1007.0
20260905233109 94 49 5.0 11.0 0.00 0.00 0.00 29 1007.1
20260905231509 94 53 5.0 10.0 0.00 0.00 0.00 29 1007.1
20260905230008 94 28 4.0 11.0 0.00 0.00 0.00 27 1007.0
20260905224507 94 80 3.0 11.0 0.00 0.00 0.00 28 1007.1
20260905223006 94 105 4.0 10.0 0.00 0.00 0.00 28 1007.3
20260905221507 93 35 4.0 10.0 0.00 0.00 0.00 29 1007.4
20260905220002 93 46 6.0 13.0 0.00 0.00 0.00 29 1007.6
20260905214503 94 66 6.0 12.0 0.00 0.00 0.00 29 1007.7
20260905213002 94 81 6.0 16.0 0.00 0.00 0.00 28 1007.7
20260905211604 94 9 6.0 11.0 0.00 0.00 0.00 27 1007.8
20260905210058 94 113 3.0 11.0 0.00 0.00 0.00 26 1007.8
20260905204556 94 345 3.0 10.0 0.00 0.00 0.00 26 1008.0
20260905203100 94 51 4.0 10.0 0.00 0.00 0.00 22 1008.2
20260905200052 93 88 3.0 8.0 0.00 0.00 0.00 19 1008.5
20260905194547 92 57 1.0 8.0 0.00 0.00 0.00 16 1008.7
20260905193104 92 117 1.0 8.0 0.00 0.00 0.00 17 1008.9
20260905191543 90 68 0.0 5.0 0.00 0.00 0.00 20 1009.1
20260905190038 89 75 0.0 6.0 0.00 0.00 0.00 22 1009.3
20260905184534 87 57 1.0 8.0 0.00 0.00 0.00 26 1009.6
20260905183032 87 67 0.0 8.0 0.00 0.00 0.00 28 1009.7
20260905181527 85 30 0.0 5.0 0.00 0.00 0.00 30 1009.8
20260905180025 84 90 1.0 3.0 0.00 0.00 0.00 32 1009.8
20260905174523 83 123 0.0 3.0 0.00 0.00 0.00 30 1009.8
20260905173021 82 58 1.0 4.0 0.00 0.00 0.00 30 1009.7
20260905171529 80 22 0.0 4.0 0.00 0.00 0.00 33 1009.6
20260905170013 79 57 1.0 4.0 0.00 0.00 0.00 33 1009.6
20260905164517 77 65 0.0 2.0 0.00 0.00 0.00 39 1009.6
20260905163004 75 49 0.0 3.0 0.00 0.00 0.00 45 1009.6
20260905161600 74 46 0.0 3.0 0.00 0.00 0.00 49 1009.5
20260905160057 72 114 1.0 3.0 0.00 0.00 0.00 54 1009.6